• In Hungary
  • List of Countries
  • For 7 days
  • Water Temperature
  • Satellite Maps
  • Weather Map
  • News
  • Weather Widgets
  • user-avatar
    Login

    Hourly Weather Sozopol

    Today, 24 October, Tuesday

    Time Temperature Precipitation Wind Pressure Humidity
    00:00 +17°C° 0 mm 4 mps 749 mmHg 72%
    01:00 +17°C° 0 mm 4 mps 748 mmHg 72%
    02:00 +17°C° 0 mm 4 mps 748 mmHg 73%
    03:00 +17°C° 0.4 mm 4 mps 748 mmHg 78%
    04:00 +17°C° 0.4 mm 4 mps 748 mmHg 82%
    05:00 +17°C° 0.4 mm 4 mps 748 mmHg 87%
    06:00 +16°C° 0.9 mm 5 mps 748 mmHg 86%
    07:00 +16°C° 0.9 mm 5 mps 748 mmHg 84%
    08:00 +17°C° 0.9 mm 6 mps 748 mmHg 83%
    09:00 +19°C° 0.3 mm 6 mps 749 mmHg 78%
    10:00 +19°C° 0.3 mm 6 mps 749 mmHg 73%
    11:00 +20°C° 0.3 mm 6 mps 749 mmHg 68%
    12:00 +20°C° 0.6 mm 7 mps 750 mmHg 68%
    13:00 +20°C° 0.6 mm 7 mps 750 mmHg 69%
    14:00 +18°C° 0.6 mm 8 mps 751 mmHg 69%
    15:00 +19°C° 0.1 mm 6 mps 751 mmHg 71%
    16:00 +17°C° 0.1 mm 5 mps 751 mmHg 73%
    17:00 +18°C° 0.1 mm 4 mps 752 mmHg 74%
    18:00 +17°C° 0.1 mm 4 mps 752 mmHg 77%
    19:00 +16°C° 0.1 mm 5 mps 753 mmHg 80%
    20:00 +15°C° 0.1 mm 5 mps 753 mmHg 83%
    21:00 +15°C° 0.4 mm 5 mps 754 mmHg 85%
    22:00 +15°C° 0.4 mm 6 mps 754 mmHg 87%
    23:00 +15°C° 0.4 mm 6 mps 755 mmHg 89%

    Tomorrow, 25 October, Wednesday

    Time Temperature Precipitation Wind Pressure Humidity
    00:00 +15°C° 0.8 mm 7 mps 755 mmHg 89%
    01:00 +15°C° 0.8 mm 7 mps 756 mmHg 89%
    02:00 +15°C° 0.8 mm 8 mps 756 mmHg 88%
    03:00 +15°C° 2.4 mm 8 mps 757 mmHg 88%
    04:00 +13°C° 2.4 mm 9 mps 757 mmHg 88%
    05:00 +13°C° 2.4 mm 10 mps 757 mmHg 88%
    06:00 +12°C° 2.7 mm 10 mps 758 mmHg 88%
    07:00 +11°C° 2.7 mm 10 mps 759 mmHg 89%
    08:00 +9°C° 2.7 mm 10 mps 759 mmHg 89%
    09:00 +8°C° 0.5 mm 10 mps 760 mmHg 87%
    10:00 +8°C° 0.5 mm 9 mps 761 mmHg 84%
    11:00 +8°C° 0.5 mm 9 mps 761 mmHg 82%
    12:00 +8°C° 0.1 mm 9 mps 761 mmHg 81%
    13:00 +8°C° 0.1 mm 9 mps 762 mmHg 79%
    14:00 +8°C° 0.1 mm 9 mps 762 mmHg 78%
    15:00 +8°C° 0.1 mm 9 mps 762 mmHg 77%
    16:00 +8°C° 0.1 mm 9 mps 763 mmHg 76%
    17:00 +8°C° 0.1 mm 9 mps 763 mmHg 74%
    18:00 +8°C° 0.1 mm 9 mps 763 mmHg 75%
    19:00 +8°C° 0.1 mm 9 mps 764 mmHg 75%
    20:00 +7°C° 0.1 mm 8 mps 764 mmHg 76%
    21:00 +7°C° 0.1 mm 8 mps 765 mmHg 76%
    22:00 +7°C° 0.1 mm 8 mps 765 mmHg 77%
    23:00 +7°C° 0.1 mm 8 mps 765 mmHg 77%

    Day after tomorrow, 26 October, Thursday

    Time Temperature Precipitation Wind Pressure Humidity
    00:00 +8°C° 0 mm 7 mps 765 mmHg 78%
    01:00 +8°C° 0 mm 7 mps 765 mmHg 78%
    02:00 +6°C° 0 mm 7 mps 765 mmHg 78%
    03:00 +6°C° 0 mm 7 mps 765 mmHg 79%
    04:00 +6°C° 0 mm 7 mps 765 mmHg 80%
    05:00 +6°C° 0 mm 7 mps 765 mmHg 80%
    06:00 +6°C° 0 mm 7 mps 766 mmHg 79%
    07:00 +7°C° 0 mm 6 mps 766 mmHg 77%
    08:00 +8°C° 0 mm 6 mps 766 mmHg 76%
    09:00 +9°C° 0 mm 6 mps 766 mmHg 71%
    10:00 +12°C° 0 mm 5 mps 766 mmHg 66%
    11:00 +14°C° 0 mm 5 mps 766 mmHg 61%
    12:00 +14°C° 0 mm 4 mps 766 mmHg 59%
    13:00 +15°C° 0 mm 4 mps 766 mmHg 57%
    14:00 +17°C° 0 mm 4 mps 765 mmHg 55%
    15:00 +16°C° 0 mm 3 mps 765 mmHg 59%
    16:00 +15°C° 0 mm 2 mps 765 mmHg 64%
    17:00 +14°C° 0 mm 2 mps 765 mmHg 68%
    18:00 +14°C° 0 mm 1 mps 765 mmHg 71%
    19:00 +13°C° 0 mm 1 mps 765 mmHg 74%
    20:00 +12°C° 0 mm 1 mps 765 mmHg 77%
    21:00 +12°C° 0 mm 1 mps 765 mmHg 77%
    22:00 +12°C° 0 mm 1 mps 765 mmHg 78%
    23:00 +11°C° 0 mm 1 mps 765 mmHg 79%

    27 October, Friday

    Time Temperature Precipitation Wind Pressure Humidity
    00:00 +11°C° 0 mm 1 mps 765 mmHg 80%
    01:00 +11°C° 0 mm 1 mps 764 mmHg 81%
    02:00 +11°C° 0 mm 1 mps 764 mmHg 82%
    03:00 +11°C° 0 mm 1 mps 764 mmHg 82%
    04:00 +10°C° 0 mm 1 mps 763 mmHg 83%
    05:00 +10°C° 0 mm 1 mps 763 mmHg 83%
    06:00 +11°C° 0 mm 1 mps 763 mmHg 81%
    07:00 +12°C° 0 mm 1 mps 763 mmHg 78%
    08:00 +12°C° 0 mm 1 mps 763 mmHg 76%
    09:00 +14°C° 0 mm 1 mps 762 mmHg 68%
    10:00 +16°C° 0 mm 1 mps 762 mmHg 61%
    11:00 +19°C° 0 mm 1 mps 762 mmHg 54%
    12:00 +20°C° 0 mm 1 mps 761 mmHg 51%
    13:00 +21°C° 0 mm 1 mps 760 mmHg 49%
    14:00 +20°C° 0 mm 2 mps 759 mmHg 46%
    15:00 +19°C° 0 mm 2 mps 759 mmHg 51%
    16:00 +18°C° 0 mm 2 mps 758 mmHg 56%
    17:00 +17°C° 0 mm 2 mps 758 mmHg 61%
    18:00 +16°C° 0 mm 3 mps 757 mmHg 63%
    19:00 +14°C° 0 mm 3 mps 757 mmHg 66%
    20:00 +13°C° 0 mm 3 mps 757 mmHg 68%
    21:00 +13°C° 0 mm 3 mps 756 mmHg 69%
    22:00 +13°C° 0 mm 3 mps 756 mmHg 69%
    23:00 +12°C° 0 mm 3 mps 756 mmHg 70%

    28 October, Saturday

    Time Temperature Precipitation Wind Pressure Humidity
    00:00 +12°C° 0 mm 3 mps 755 mmHg 70%
    01:00 +12°C° 0 mm 3 mps 754 mmHg 70%
    02:00 +12°C° 0 mm 3 mps 754 mmHg 70%
    03:00 +12°C° 0 mm 3 mps 753 mmHg 70%
    04:00 +12°C° 0 mm 3 mps 753 mmHg 70%
    05:00 +12°C° 0 mm 3 mps 752 mmHg 69%
    06:00 +13°C° 0 mm 3 mps 752 mmHg 68%
    07:00 +13°C° 0 mm 3 mps 752 mmHg 67%
    08:00 +13°C° 0 mm 3 mps 752 mmHg 66%
    09:00 +14°C° 0 mm 4 mps 752 mmHg 66%
    10:00 +15°C° 0 mm 4 mps 753 mmHg 65%
    11:00 +16°C° 0 mm 5 mps 753 mmHg 64%
    12:00 +15°C° 0.2 mm 6 mps 753 mmHg 67%
    13:00 +14°C° 0.2 mm 7 mps 753 mmHg 69%
    14:00 +12°C° 0.2 mm 7 mps 753 mmHg 72%
    15:00 +11°C° 0.5 mm 7 mps 753 mmHg 74%
    16:00 +11°C° 0.5 mm 6 mps 753 mmHg 76%
    17:00 +10°C° 0.5 mm 6 mps 753 mmHg 78%
    18:00 +10°C° 0.6 mm 5 mps 754 mmHg 80%
    19:00 +9°C° 0.6 mm 5 mps 754 mmHg 82%
    20:00 +9°C° 0.6 mm 5 mps 754 mmHg 83%
    21:00 +10°C° 0.4 mm 4 mps 754 mmHg 83%
    22:00 +10°C° 0.4 mm 4 mps 754 mmHg 83%
    23:00 +10°C° 0.4 mm 4 mps 755 mmHg 83%

    29 October, Sunday

    Time Temperature Precipitation Wind Pressure Humidity
    00:00 +8°C° 0.1 mm 4 mps 755 mmHg 83%
    01:00 +8°C° 0.1 mm 4 mps 755 mmHg 84%
    02:00 +8°C° 0.1 mm 4 mps 755 mmHg 85%
    03:00 +9°C° 0 mm 3 mps 755 mmHg 86%
    04:00 +8°C° 0 mm 3 mps 755 mmHg 87%
    05:00 +8°C° 0 mm 3 mps 755 mmHg 87%
    06:00 +8°C° 0 mm 3 mps 755 mmHg 85%
    07:00 +8°C° 0 mm 2 mps 755 mmHg 83%
    08:00 +9°C° 0 mm 2 mps 755 mmHg 81%
    09:00 +12°C° 0 mm 2 mps 755 mmHg 72%
    10:00 +13°C° 0 mm 1 mps 755 mmHg 64%
    11:00 +15°C° 0 mm 1 mps 755 mmHg 56%
    12:00 +16°C° 0 mm 1 mps 754 mmHg 53%
    13:00 +16°C° 0 mm 2 mps 754 mmHg 51%
    14:00 +17°C° 0 mm 2 mps 753 mmHg 48%
    15:00 +16°C° 0 mm 2 mps 753 mmHg 54%
    16:00 +14°C° 0 mm 3 mps 753 mmHg 59%
    17:00 +13°C° 0 mm 3 mps 752 mmHg 65%
    18:00 +12°C° 0 mm 3 mps 752 mmHg 71%
    19:00 +12°C° 0 mm 3 mps 752 mmHg 76%
    20:00 +11°C° 0 mm 3 mps 753 mmHg 82%
    21:00 +11°C° 0 mm 3 mps 752 mmHg 85%
    22:00 +11°C° 0 mm 3 mps 752 mmHg 88%
    23:00 +11°C° 0 mm 3 mps 752 mmHg 90%

    30 October, Monday

    Time Temperature Precipitation Wind Pressure Humidity
    00:00 +11°C° 0 mm 3 mps 752 mmHg 91%
    01:00 +11°C° 0 mm 3 mps 752 mmHg 91%
    02:00 +12°C° 0 mm 2 mps 752 mmHg 92%
    03:00 +12°C° 0.2 mm 2 mps 751 mmHg 92%
    04:00 +12°C° 0.2 mm 2 mps 751 mmHg 93%
    05:00 +12°C° 0.2 mm 2 mps 751 mmHg 93%
    06:00 +12°C° 0 mm 2 mps 751 mmHg 92%
    07:00 +13°C° 0 mm 2 mps 751 mmHg 90%
    08:00 +13°C° 0 mm 2 mps 751 mmHg 88%
    09:00 +14°C° 0.1 mm 2 mps 751 mmHg 85%
    10:00 +15°C° 0.1 mm 2 mps 751 mmHg 83%
    11:00 +15°C° 0.1 mm 2 mps 751 mmHg 80%
    12:00 +13°C° 1.5 mm 3 mps 751 mmHg 83%
    13:00 +12°C° 1.5 mm 4 mps 751 mmHg 86%
    14:00 +10°C° 1.5 mm 6 mps 750 mmHg 89%
    15:00 +9°C° 3.1 mm 7 mps 750 mmHg 90%
    16:00 +7°C° 3.1 mm 8 mps 751 mmHg 90%
    17:00 +7°C° 3.1 mm 9 mps 751 mmHg 90%
    18:00 +6°C° 1.6 mm 9 mps 751 mmHg 88%
    19:00 +6°C° 1.6 mm 10 mps 752 mmHg 87%
    20:00 +6°C° 1.6 mm 10 mps 753 mmHg 86%
    21:00 +6°C° 1.3 mm 9 mps 753 mmHg 86%
    22:00 +6°C° 1.3 mm 9 mps 754 mmHg 86%
    23:00 +5°C° 1.3 mm 8 mps 754 mmHg 86%
    Show more